Terug naar catalogus

SKYNET 4D

ActiefMilitairGEO
NORAD 25134·PAYLOAD·🇬🇧 United Kingdom

Gelanceerd Jan 10, 1998 vanaf Cape Canaveral Space Force Station

Loading…

TLE

VersSource: Space-Track

Epoch: Sep 14, 2026, 09:28 UTC

1 25134U 98002A   26257.39460730 -.00000034  00000-0  00000-0 0  9996
2 25134  12.8759  10.1963 0005689 184.6271 204.4478  0.99150984104263

Volg SKYNET 4D in realtime met AllMySat

Download on the App Store